Location: Lussas
(44.6119°N, 4.4726°E)
Time: 15:25:33
(UTC+00:00)

H-2A R/B - Pass Details

Date: 26 November 2020
Orbit: 529 x 651 km, 98.3° (Epoch: 27 January)

Event Time Altitude Azimuth Distance (km) Brightness Sun altitude
Rises 06:08:59 0° 8° (N) 2,720 5.7 -7.9°
Reaches altitude 10° 06:11:10 10° 4° (N) 1,810 4.8 -7.6°
Maximum altitude 06:14:56 51° 288° (WNW) 677 2.4 -7.0°
Drops below altitude 10° 06:18:38 10° 212° (SSW) 1,773 4.8 -6.4°
Sets 06:20:45 0° 207° (SSW) 2,657 5.8 -6.0°
